SL-8 DEB, 2934

Orbit data source: Space-Track

SL-8 DEB, 2934 is space debris in LEO originally from a launch on Mon, 15 Mar 1965 UTC launched from the Tyuratam Missile And Space Complex (TTMTR). Debris objects in space refer to the collection of defunct objects orbiting the Earth. Examples of debris include non-operational satellites, rocket bodies, and fragments generated from explosions, collisions, or faulty payload assembly.

Loading next visibility...
SL-8 DEB details
Identifier
2934, 1965-020EM
Orbit
LEO
Last TLE update15 hours ago
Origin
Flag of CISRVSN (CIS)
ManufacturerUnknown
MissionSpacecraft
Bus & MotorUnknown
MassUnknown
Launch date (UTC)
1965-03-15 (60 years ago)
Launch vehicleUnknown
Launch site
Tyuratam Missile And Space Complex (TTMTR)
Object type
Payload
Rocket body
Debris
Shape & HBRUnknown
Radar Cross SectionSmall (<0.1 m²)

Expand to show TLE details & history

TLE from 15 hours ago
0 SL-8 DEB
1 02934U 65020EM  25047.44266797  .00000553  00000-0  33140-2 0  9990
2 02934  55.5973  58.2637 0362413 273.9211 238.5374 12.50839495641312
Epoch: 2025-02-16T10:37Z
Definitive object data (Epoch: 2025-02-16T10:37:26.512Z)
Latitude25.20332°
Longitude-86.47979°
Altitude1,617.74 km
Speed6.994 km/s
True Right ascension14h 38m 13s
True Declination25° 05' 07"
Sunlit
Object was in daylight at TLE epoch
Visualization TLE readout
Latitude31.01979°
Longitude134.7382°
Altitude1,613.594 km
Speed6.999 km/s
Apparent Right ascension07h 43m 30s
Apparent Declination0° 36' 17"
Sunlit
Object is in daylight
Visualization observer readout
Local Sidereal Time04:09:14
Azimuth114.87° SE
Elevation27.531°
Doppler factor1
Orbital elements
Apogee altitude1,744.967 km
Perigee altitude1,176.775 km
Semi-major axis7,839.008 km
Eccentricity0.0362413
Inclination55.5973°
RAAN58.2637°
Arg. of periapsis273.9211°
True anomaly235.07901°
Mean anomaly238.5374°
Eccentric anomaly236.79988°
Mean motion3.12717 °/min
BSTAR0.003314
Orbital period115.12 mins
Loading maneuver chart data...
Loading historical data...
Loading historical data...
Loading historical data...
Loading historical data...
Loading historical data...
Loading historical data...
Loading historical data...

SL-8 DEB Visibility forecast

Observer location: undefined°, undefined

Span
Click to sort rows by Start time (UTC) header in descending order
Start Az.
Max El. time (UTC)
Max El. Az.
Max El.
End time (UTC)
End Az.
7 mins2025-02-17 01:20:35.487Z115.098° SE2025-02-17 01:20:35.487Z115.098° SE24.715°2025-02-17 01:27:35.487Z66.503° ENE
18 mins2025-02-17 03:11:35.487Z225.432° WSW2025-02-17 03:19:35.487Z248.553° W44.814°2025-02-17 03:29:35.487Z46.155° ENE
17 mins2025-02-17 05:14:35.487Z278.406° WNW2025-02-17 05:21:35.487Z335.171° NNW32.99°2025-02-17 05:31:35.487Z47.36° ENE
17 mins2025-02-17 07:17:35.487Z309.468° NW2025-02-17 07:25:35.487Z8.252° NNE29.231°2025-02-17 07:34:35.487Z69.328° E
18 mins2025-02-17 09:19:35.487Z317.939° NNW2025-02-17 09:28:35.487Z36.696° NE40.084°2025-02-17 09:37:35.487Z109.944° ESE
17 mins2025-02-17 11:20:35.487Z305.698° NW2025-02-17 11:29:35.487Z226.509° WSW39.109°2025-02-17 11:37:35.487Z162.672° S
7 mins2025-02-18 00:17:35.487Z127.873° SE2025-02-18 00:20:35.487Z107.891° ESE13.269°2025-02-18 00:24:35.487Z83.102° E
|